Regional Weather Roundup
Issued by NWS

Home | Current Version | Previous Version | Text Only | Print | Product List | Glossary Off
Versions: 1 2 3 4 5 6 7 8 9 10 11 12 13 14 15 16 17 18 19 20 21 22 23 24 25 26 27 28 29 30 31 32 33 34 35 36 37 38 39 40 41 42 43 44 45 46 47 48 49 50

000
ASUS44 KMEG 201310
RWRTN
TENNESSEE HOURLY STATE WEATHER ROUNDUP
NATIONAL WEATHER SERVICE MEMPHIS TN
700 AM CST MON NOV 20 2017

TNZ002-004-019-021-049-052-054-088>092-201400-
WEST TENNESSEE

CITY           SKY/WX    TMP DP  RH WIND       PRES   REMARKS
MEMPHIS INTL   PTCLDY    31  26  82 CALM      30.26R
NWS MEMPHIS      N/A     28 N/A N/A MISG        N/A
JACKSON        CLOUDY    23  22  96 CALM      30.26S
DYERSBURG      CLOUDY    27  25  92 CALM      30.27R
COVINGTON      CLEAR     25  23  93 CALM      30.27R
UNION CITY     CLEAR     25  23  93 CALM      30.26R
BOLIVAR        CLEAR     23  21  93 CALM      30.25R
PARIS          CLEAR     27  25  93 SE5       30.25R WCI  21
HUNTINGDON     CLEAR     25  23  93 CALM      30.26R
LEXINGTON      CLEAR     23  21  93 CALM      30.27R
SELMER         CLEAR     25  23  93 CALM      30.25S
SAVANNAH       CLEAR     23  21  93 CALM      30.26R
$$

TNZ008-025-027-028-033-062-065-066-201400-
NORTH MIDDLE TENNESSEE

CITY           SKY/WX    TMP DP  RH WIND       PRES   REMARKS
NASHVILLE      CLOUDY    28  24  85 CALM      30.29R
PORTLAND       CLEAR     25  23  93 S6        30.26R WCI  18
CLARKSVILLE    CLOUDY    24  22  91 CALM      30.27R FOG
SMYRNA         CLOUDY    25  23  92 CALM      30.31R
COOKEVILLE     CLEAR     21  21 100 CALM      30.27R
GALLATIN       PTCLDY    23  23 100 CALM      30.32R
CROSSVILLE     CLOUDY    24  21  88 CALM      30.23R
$$

TNZ061-075-076-078-094-096-097-201400-
SOUTH MIDDLE TENNESSEE

CITY           SKY/WX    TMP DP  RH WIND       PRES   REMARKS
FAYETTEVILLE   CLEAR     27  25  93 CALM      30.24R
TULLAHOMA      CLEAR     25  21  86 N5        30.24S WCI  19
WINCHESTER     CLEAR     23  21  93 CALM      30.25S
MCMINNVILLE    CLEAR     23  23 100 CALM      30.27R FOG
COLUMBIA       CLEAR     23  23 100 CALM      30.26R FOG
SHELBYVILLE    CLEAR     23  21  93 NE3       30.27R
$$

TNZ017-018-042-046-047-201400-
NORTHEAST TENNESSEE

CITY           SKY/WX    TMP DP  RH WIND       PRES   REMARKS
TRI CITIES     CLOUDY    25  24  96 CALM      30.27R
ELIZABETHTON   CLEAR     27  27 100 CALM      30.27R
$$

TNZ012-013-036-069-073-074-201400-
CENTRAL EAST TENNESSEE

CITY           SKY/WX    TMP DP  RH WIND       PRES   REMARKS
KNOXVILLE      CLOUDY    27  27 100 CALM      30.26R
OAK RIDGE      MIX PCPN  28  28 100 CALM      30.29R VSB 1/4
DOWNTOWN KNOXV FOG       30  30 100 CALM      30.29R VSB 0
GATLINBURG     CLEAR     25  23  93 CALM      30.27R
MORRISTOWN     CLEAR     27  25  93 CALM      30.26R
JACKSBORO      MOCLDY    25  25 100 CALM      30.31R
$$

TNZ083-085-099-201400-
SOUTHEAST TENNESSEE

CITY           SKY/WX    TMP DP  RH WIND       PRES   REMARKS
CHATTANOOGA    CLOUDY    30  26  85 CALM      30.28R
$$

SKY/WX REPORTED AS FAIR MEANS FEW OR NO CLOUDS BELOW
12 THOUSAND FEET.





USA.gov is the U.S. government's official web portal to all federal, state and local government web resources and services.